Weather History for KGGW - June, 2013

Change the Weather History Date:

Saturday, June 15, 2013

  Actual Average Record
Temperature  
Mean Temperature 62 °F 64 °F  
Max Temperature 74 °F 77 °F 102 °F (1933)
Min Temperature 50 °F 51 °F 33 °F (1902)
Degree Days  
Heating Degree Days 3 3  
Month to date heating degree days 70 72  
Since 1 June heating degree days 70 72  
Since 1 July heating degree days 8564 8403  
Cooling Degree Days 0 2  
Month to date cooling degree days 3 26  
Year to date cooling degree days 12 43  
Since 1 June cooling degree days 3 26  
Growing Degree Days 12 (Base 50)    
Moisture  
Dew Point 45 °F    
Average Humidity 55    
Maximum Humidity 77    
Minimum Humidity 33    
Precipitation  
Precipitation 0.00 in 0.08 in 0.96 in (1993)
Month to date precipitation 2.87 1.24  
Year to date precipitation 10.14 5.06  
Snow  
Snow 0.00 in 0.00 in 0.00 in (2002)
Month to date snowfall 0.0 0.0  
Since 1 June snowfall 0.0 0.0  
Since 1 July snowfall 62.3 34.8  
Snow Depth 0.00 in    
Sea Level Pressure  
Sea Level Pressure 29.90 in    
Wind  
Wind Speed 14 mph (West)    
Max Wind Speed 28 mph    
Max Gust Speed 38 mph    
Visibility 10 miles    
Events      
T = Trace of Precipitation, MM = Missing Value Source: NWS Daily Summary

Daily Weather History Graph

Daily Weather History Graph

Search for Another Location

Airport or City:

Trip Planner

Search our weather history database for the weather conditions in past years. The results will help you decide how hot, cold, wet, or windy it might be!

Date:

Astronomy

Jun. 15, 2013 Rise Set
Actual Time 5:05 AM MDT 9:08 PM MDT
Civil Twilight 4:23 AM MDT 9:50 PM MDT
Nautical Twilight 3:25 AM MDT 10:48 PM MDT
Astronomical Twilight 1:43 AM MDT 12:31 AM MDT
Moon 12:11 PM MDT (6/15) 12:19 AM MDT (6/15)
Length of Visible Light 17h 26m
Length of Day
16h 03m
Waxing Crescent, 40% of the Moon is Illuminated
Jun 15
Waxing Crescent
Jun 16
First Quarter
Jun 23
Full
Jun 29
Last Quarter
Jul 8
New

Hourly Weather History & Observations

Time (MDT) Temp. Dew Point Humidity Pressure Visibility Wind Dir Wind Speed Gust Speed Precip Events Conditions
12:53 AM 52.0 °F 45.0 °F 77% 29.91 in 10.0 mi WSW 6.9 mph - N/A   Clear
1:53 AM 51.1 °F 45.0 °F 80% 29.91 in 10.0 mi WSW 9.2 mph - N/A   Clear
2:53 AM 53.1 °F 43.0 °F 69% 29.91 in 10.0 mi WSW 12.7 mph - N/A   Clear
3:53 AM 51.1 °F 43.0 °F 74% 29.91 in 10.0 mi West 12.7 mph - N/A   Clear
4:53 AM 51.1 °F 42.1 °F 71% 29.90 in 10.0 mi West 15.0 mph - N/A   Clear
5:53 AM 52.0 °F 42.1 °F 69% 29.92 in 10.0 mi West 10.4 mph - N/A   Clear
6:53 AM 54.0 °F 44.1 °F 69% 29.92 in 10.0 mi WSW 11.5 mph - N/A   Clear
7:53 AM 57.9 °F 44.1 °F 60% 29.92 in 10.0 mi WSW 15.0 mph 23.0 mph N/A   Clear
8:53 AM 62.1 °F 45.0 °F 53% 29.92 in 10.0 mi West 18.4 mph 26.5 mph N/A   Clear
9:53 AM 64.0 °F 46.0 °F 52% 29.91 in 10.0 mi West 19.6 mph 26.5 mph N/A   Clear
10:53 AM 66.0 °F 46.0 °F 48% 29.91 in 10.0 mi West 21.9 mph 31.1 mph N/A   Clear
11:53 AM 69.1 °F 46.9 °F 45% 29.91 in 10.0 mi West 23.0 mph 28.8 mph N/A   Partly Cloudy
12:53 PM 70.0 °F 46.0 °F 42% 29.91 in 10.0 mi West 21.9 mph 29.9 mph N/A   Partly Cloudy
1:53 PM 71.1 °F 46.0 °F 41% 29.90 in 10.0 mi West 18.4 mph 28.8 mph N/A   Mostly Cloudy
2:53 PM 73.0 °F 45.0 °F 37% 29.88 in 10.0 mi West 19.6 mph 29.9 mph N/A   Mostly Cloudy
3:53 PM 73.0 °F 43.0 °F 34% 29.88 in 10.0 mi West 21.9 mph 32.2 mph N/A   Partly Cloudy
4:53 PM 73.0 °F 43.0 °F 34% 29.87 in 10.0 mi West 23.0 mph 29.9 mph N/A   Clear
5:53 PM 71.1 °F 42.1 °F 35% 29.87 in 10.0 mi West 17.3 mph 27.6 mph N/A   Clear
6:53 PM 72.0 °F 44.1 °F 37% 29.87 in 10.0 mi West 15.0 mph - N/A   Partly Cloudy
7:53 PM 70.0 °F 46.0 °F 42% 29.88 in 10.0 mi WNW 8.1 mph - N/A   Partly Cloudy
8:53 PM 64.9 °F 48.0 °F 54% 29.88 in 10.0 mi West 6.9 mph - N/A   Clear
9:53 PM 61.0 °F 48.0 °F 62% 29.90 in 10.0 mi West 6.9 mph - N/A   Clear
10:53 PM 59.0 °F 48.9 °F 69% 29.92 in 10.0 mi West 3.5 mph - N/A   Partly Cloudy
11:53 PM 55.9 °F 46.9 °F 72% 29.92 in 10.0 mi NNW 4.6 mph - N/A   Clear